| time (UTC) | temp F | wind direction | speed MPH | gust MPH | rain 1hr in | rain 24hr in | rain mn in | humidity % | barometer mb |
| 20260903211557 | 101 | 240 | 0.0 | 2.0 | 0.00 | 0.00 | 0.00 | 48 | 1034.6 |
| 20260903211054 | 100 | 355 | 2.0 | 2.0 | 0.00 | 0.00 | 0.00 | 47 | 1034.7 |
| 20260903210548 | 99 | 151 | 0.0 | 3.0 | 0.00 | 0.00 | 0.00 | 49 | 1034.8 |
| 20260903210044 | 100 | 184 | 2.0 | 2.0 | 0.00 | 0.00 | 0.00 | 48 | 1034.7 |
| 20260903205538 | 101 | 106 | 0.0 | 3.0 | 0.00 | 0.00 | 0.00 | 46 | 1034.9 |
| 20260903205038 | 100 | 0 | 0.0 | 3.0 | 0.00 | 0.00 | 0.00 | 46 | 1034.9 |
| 20260903204534 | 97 | 168 | 0.0 | 3.0 | 0.00 | 0.00 | 0.00 | 50 | 1034.8 |
| 20260903204029 | 96 | 180 | 3.0 | 4.0 | 0.00 | 0.00 | 0.00 | 51 | 1034.9 |
| 20260903203525 | 99 | 176 | 2.0 | 3.0 | 0.00 | 0.00 | 0.00 | 49 | 1035.2 |
| 20260903203024 | 101 | 180 | 2.0 | 2.0 | 0.00 | 0.00 | 0.00 | 47 | 1035.0 |
| 20260903202520 | 99 | 346 | 1.0 | 2.0 | 0.00 | 0.00 | 0.00 | 48 | 1035.2 |
| 20260903202015 | 99 | 270 | 0.0 | 3.0 | 0.00 | 0.00 | 0.00 | 49 | 1035.1 |
| 20260903201510 | 98 | 180 | 3.0 | 3.0 | 0.00 | 0.00 | 0.00 | 50 | 1035.2 |
| 20260903201009 | 98 | 159 | 2.0 | 3.0 | 0.00 | 0.00 | 0.00 | 50 | 1035.1 |
| 20260903200504 | 97 | 180 | 3.0 | 5.0 | 0.00 | 0.00 | 0.00 | 51 | 1035.3 |
| 20260903195958 | 99 | 0 | 0.0 | 3.0 | 0.00 | 0.00 | 0.00 | 48 | 1035.5 |
| 20260903195455 | 98 | 169 | 2.0 | 3.0 | 0.00 | 0.00 | 0.00 | 50 | 1035.5 |
| 20260903194950 | 98 | 172 | 2.0 | 3.0 | 0.00 | 0.00 | 0.00 | 50 | 1035.3 |
| 20260903194445 | 99 | 206 | 0.0 | 2.0 | 0.00 | 0.00 | 0.00 | 49 | 1035.5 |
| 20260903193940 | 100 | 180 | 0.0 | 2.0 | 0.00 | 0.00 | 0.00 | 48 | 1035.7 |
| 20260903193437 | 99 | 345 | 0.0 | 2.0 | 0.00 | 0.00 | 0.00 | 49 | 1035.7 |
| 20260903192931 | 98 | 0 | 1.0 | 3.0 | 0.00 | 0.00 | 0.00 | 50 | 1035.8 |
| 20260903192428 | 98 | 337 | 1.0 | 2.0 | 0.00 | 0.00 | 0.00 | 51 | 1035.8 |
| 20260903191924 | 99 | 172 | 0.0 | 1.0 | 0.00 | 0.00 | 0.00 | 50 | 1035.7 |
| 20260903191420 | 96 | 180 | 2.0 | 2.0 | 0.00 | 0.00 | 0.00 | 52 | 1036.0 |
| 20260903190919 | 95 | 189 | 3.0 | 4.0 | 0.00 | 0.00 | 0.00 | 52 | 1035.8 |
| 20260903190413 | 97 | 195 | 0.0 | 2.0 | 0.00 | 0.00 | 0.00 | 51 | 1036.1 |
| 20260903185913 | 95 | 209 | 1.0 | 3.0 | 0.00 | 0.00 | 0.00 | 54 | 1035.9 |
| 20260903185408 | 95 | 176 | 2.0 | 3.0 | 0.00 | 0.00 | 0.00 | 52 | 1036.1 |
| 20260903184903 | 97 | 209 | 0.0 | 1.0 | 0.00 | 0.00 | 0.00 | 53 | 1036.3 |
| 20260903184401 | 95 | 170 | 2.0 | 3.0 | 0.00 | 0.00 | 0.00 | 55 | 1036.0 |
| 20260903183854 | 94 | 176 | 2.0 | 2.0 | 0.00 | 0.00 | 0.00 | 58 | 1036.1 |
| 20260903183349 | 94 | 180 | 2.0 | 4.0 | 0.00 | 0.00 | 0.00 | 56 | 1036.1 |
| 20260903182849 | 95 | 170 | 2.0 | 2.0 | 0.00 | 0.00 | 0.00 | 54 | 1036.4 |
| 20260903182348 | 95 | 180 | 1.0 | 3.0 | 0.00 | 0.00 | 0.00 | 56 | 1036.3 |
| 20260903181843 | 94 | 165 | 2.0 | 2.0 | 0.00 | 0.00 | 0.00 | 55 | 1036.5 |
| 20260903181338 | 94 | 195 | 0.0 | 3.0 | 0.00 | 0.00 | 0.00 | 57 | 1036.6 |
| 20260903180837 | 94 | 180 | 0.0 | 2.0 | 0.00 | 0.00 | 0.00 | 59 | 1036.6 |
| 20260903180332 | 93 | 175 | 2.0 | 2.0 | 0.00 | 0.00 | 0.00 | 59 | 1036.7 |
| 20260903175831 | 92 | 180 | 2.0 | 3.0 | 0.00 | 0.00 | 0.00 | 61 | 1037.0 |
| 20260903175331 | 93 | 161 | 2.0 | 3.0 | 0.00 | 0.00 | 0.00 | 60 | 1036.6 |
| 20260903174825 | 92 | 0 | 0.0 | 2.0 | 0.00 | 0.00 | 0.00 | 59 | 1036.9 |
| 20260903174320 | 91 | 176 | 2.0 | 3.0 | 0.00 | 0.00 | 0.00 | 60 | 1036.8 |
| 20260903173814 | 91 | 151 | 1.0 | 1.0 | 0.00 | 0.00 | 0.00 | 62 | 1037.1 |
| 20260903173310 | 91 | 163 | 2.0 | 2.0 | 0.00 | 0.00 | 0.00 | 63 | 1037.1 |
| 20260903172806 | 90 | 20 | 0.0 | 2.0 | 0.00 | 0.00 | 0.00 | 62 | 1037.2 |
| 20260903172301 | 90 | 172 | 2.0 | 3.0 | 0.00 | 0.00 | 0.00 | 64 | 1037.2 |
| 20260903171756 | 90 | 180 | 1.0 | 3.0 | 0.00 | 0.00 | 0.00 | 62 | 1037.2 |
| 20260903171252 | 90 | 152 | 0.0 | 2.0 | 0.00 | 0.00 | 0.00 | 62 | 1037.4 |
| 20260903170750 | 89 | 171 | 2.0 | 2.0 | 0.00 | 0.00 | 0.00 | 64 | 1037.7 |
| 20260903170246 | 89 | 180 | 1.0 | 2.0 | 0.00 | 0.00 | 0.00 | 62 | 1037.7 |
| 20260903165744 | 89 | 146 | 2.0 | 3.0 | 0.00 | 0.00 | 0.00 | 64 | 1037.8 |
| 20260903165239 | 88 | 170 | 2.0 | 3.0 | 0.00 | 0.00 | 0.00 | 65 | 1037.8 |
| 20260903164733 | 89 | 180 | 0.0 | 1.0 | 0.00 | 0.00 | 0.00 | 65 | 1037.8 |
| 20260903164229 | 88 | 180 | 2.0 | 2.0 | 0.00 | 0.00 | 0.00 | 65 | 1037.9 |
| 20260903163728 | 87 | 170 | 2.0 | 2.0 | 0.00 | 0.00 | 0.00 | 66 | 1037.7 |
| 20260903163225 | 87 | 170 | 2.0 | 2.0 | 0.00 | 0.00 | 0.00 | 68 | 1037.7 |
| 20260903162721 | 87 | 165 | 0.0 | 1.0 | 0.00 | 0.00 | 0.00 | 69 | 1038.0 |
| 20260903162217 | 87 | 180 | 0.0 | 1.0 | 0.00 | 0.00 | 0.00 | 69 | 1037.8 |
| 20260903161713 | 87 | 154 | 0.0 | 0.0 | 0.00 | 0.00 | 0.00 | 70 | 1037.9 |
| 20260903161208 | 87 | 154 | 0.0 | 0.0 | 0.00 | 0.00 | 0.00 | 71 | 1037.9 |
| 20260903160704 | 86 | 154 | 0.0 | 0.0 | 0.00 | 0.00 | 0.00 | 71 | 1037.8 |
| 20260903160203 | 86 | 168 | 0.0 | 2.0 | 0.00 | 0.00 | 0.00 | 72 | 1037.9 |
| 20260903155701 | 86 | 173 | 0.0 | 0.0 | 0.00 | 0.00 | 0.00 | 73 | 1038.0 |
| 20260903155201 | 86 | 157 | 0.0 | 0.0 | 0.00 | 0.00 | 0.00 | 74 | 1037.9 |
| 20260903154657 | 85 | 157 | 0.0 | 0.0 | 0.00 | 0.00 | 0.00 | 75 | 1038.2 |
| 20260903154153 | 85 | 157 | 0.0 | 2.0 | 0.00 | 0.00 | 0.00 | 75 | 1037.9 |
| 20260903153649 | 84 | 165 | 0.0 | 0.0 | 0.00 | 0.00 | 0.00 | 76 | 1037.9 |
| 20260903153144 | 84 | 11 | 0.0 | 0.0 | 0.00 | 0.00 | 0.00 | 76 | 1038.0 |
| 20260903152640 | 84 | 11 | 0.0 | 2.0 | 0.00 | 0.00 | 0.00 | 76 | 1038.1 |
| 20260903152137 | 83 | 82 | 1.0 | 1.0 | 0.00 | 0.00 | 0.00 | 77 | 1038.1 |
| 20260903151636 | 83 | 165 | 0.0 | 1.0 | 0.00 | 0.00 | 0.00 | 77 | 1038.0 |
| 20260903151131 | 83 | 99 | 0.0 | 2.0 | 0.00 | 0.00 | 0.00 | 78 | 1038.0 |
| 20260903150631 | 82 | 165 | 0.0 | 2.0 | 0.00 | 0.00 | 0.00 | 79 | 1038.0 |
| 20260903150126 | 82 | 180 | 0.0 | 1.0 | 0.00 | 0.00 | 0.00 | 80 | 1038.1 |
| 20260903145626 | 82 | 172 | 0.0 | 2.0 | 0.00 | 0.00 | 0.00 | 81 | 1037.9 |
| 20260903145121 | 82 | 175 | 0.0 | 2.0 | 0.00 | 0.00 | 0.00 | 81 | 1037.9 |
| 20260903144620 | 81 | 180 | 0.0 | 0.0 | 0.00 | 0.00 | 0.00 | 81 | 1037.9 |
| 20260903144116 | 81 | 154 | 1.0 | 1.0 | 0.00 | 0.00 | 0.00 | 81 | 1037.9 |
| 20260903143612 | 80 | 166 | 0.0 | 1.0 | 0.00 | 0.00 | 0.00 | 81 | 1037.8 |
| 20260903143108 | 80 | 140 | 2.0 | 2.0 | 0.00 | 0.00 | 0.00 | 82 | 1038.1 |
| 20260903142603 | 80 | 114 | 0.0 | 0.0 | 0.00 | 0.00 | 0.00 | 84 | 1037.9 |
| 20260903142100 | 80 | 126 | 0.0 | 0.0 | 0.00 | 0.00 | 0.00 | 84 | 1037.7 |
| 20260903141554 | 79 | 166 | 0.0 | 1.0 | 0.00 | 0.00 | 0.00 | 85 | 1037.8 |
| 20260903141049 | 79 | 120 | 1.0 | 1.0 | 0.00 | 0.00 | 0.00 | 85 | 1037.9 |
| 20260903140545 | 79 | 166 | 0.0 | 1.0 | 0.00 | 0.00 | 0.00 | 86 | 1037.8 |
| 20260903140040 | 78 | 160 | 0.0 | 1.0 | 0.00 | 0.00 | 0.00 | 86 | 1037.9 |
| 20260903135536 | 78 | 165 | 0.0 | 0.0 | 0.00 | 0.00 | 0.00 | 86 | 1037.8 |
| 20260903135030 | 78 | 165 | 0.0 | 0.0 | 0.00 | 0.00 | 0.00 | 86 | 1038.0 |
| 20260903134525 | 78 | 15 | 0.0 | 0.0 | 0.00 | 0.00 | 0.00 | 86 | 1037.9 |
| 20260903134021 | 78 | 96 | 2.0 | 2.0 | 0.00 | 0.00 | 0.00 | 87 | 1037.7 |
| 20260903133518 | 78 | 20 | 0.0 | 0.0 | 0.00 | 0.00 | 0.00 | 86 | 1037.8 |
| 20260903133014 | 78 | 20 | 0.0 | 0.0 | 0.00 | 0.00 | 0.00 | 86 | 1037.8 |
| 20260903132513 | 78 | 350 | 2.0 | 2.0 | 0.00 | 0.00 | 0.00 | 87 | 1037.8 |
| 20260903132009 | 77 | 15 | 0.0 | 0.0 | 0.00 | 0.00 | 0.00 | 88 | 1037.7 |
| 20260903131504 | 76 | 15 | 0.0 | 1.0 | 0.00 | 0.00 | 0.00 | 89 | 1037.9 |
| 20260903131002 | 75 | 23 | 1.0 | 1.0 | 0.00 | 0.00 | 0.00 | 89 | 1037.9 |
| 20260903130458 | 75 | 54 | 1.0 | 2.0 | 0.00 | 0.00 | 0.00 | 89 | 1037.9 |
| 20260903125956 | 75 | 90 | 0.0 | 0.0 | 0.00 | 0.00 | 0.00 | 89 | 1037.9 |
| 20260903125451 | 75 | 354 | 0.0 | 1.0 | 0.00 | 0.00 | 0.00 | 89 | 1038.2 |
| 20260903124950 | 75 | 355 | 1.0 | 3.0 | 0.00 | 0.00 | 0.00 | 90 | 1037.9 |
| 20260903124446 | 74 | 345 | 2.0 | 2.0 | 0.00 | 0.00 | 0.00 | 90 | 1038.2 |
| 20260903123944 | 74 | 0 | 0.0 | 2.0 | 0.00 | 0.00 | 0.00 | 91 | 1037.7 |
| 20260903123439 | 74 | 352 | 0.0 | 0.0 | 0.00 | 0.00 | 0.00 | 92 | 1037.9 |
| 20260903122938 | 74 | 0 | 0.0 | 2.0 | 0.00 | 0.00 | 0.00 | 93 | 1037.7 |
| 20260903122433 | 73 | 180 | 0.0 | 0.0 | 0.00 | 0.00 | 0.00 | 93 | 1037.7 |
| 20260903121932 | 73 | 180 | 0.0 | 0.0 | 0.00 | 0.00 | 0.00 | 93 | 1037.6 |
| 20260903121427 | 72 | 180 | 0.0 | 0.0 | 0.00 | 0.00 | 0.00 | 93 | 1037.9 |
| 20260903120923 | 73 | 166 | 0.0 | 0.0 | 0.00 | 0.00 | 0.00 | 93 | 1037.7 |
| 20260903120421 | 73 | 180 | 0.0 | 0.0 | 0.00 | 0.00 | 0.00 | 93 | 1037.7 |
| 20260903115921 | 73 | 0 | 0.0 | 0.0 | 0.00 | 0.00 | 0.00 | 92 | 1037.6 |
| 20260903115420 | 73 | 0 | 0.0 | 0.0 | 0.00 | 0.00 | 0.00 | 92 | 1037.6 |
| 20260903114915 | 73 | 0 | 0.0 | 0.0 | 0.00 | 0.00 | 0.00 | 92 | 1037.5 |
| 20260903114411 | 73 | 0 | 0.0 | 0.0 | 0.00 | 0.00 | 0.00 | 92 | 1037.5 |
| 20260903113906 | 73 | 0 | 0.0 | 0.0 | 0.00 | 0.00 | 0.00 | 92 | 1037.4 |
| 20260903113402 | 73 | 352 | 0.0 | 0.0 | 0.00 | 0.00 | 0.00 | 92 | 1037.1 |
| 20260903112857 | 73 | 345 | 0.0 | 0.0 | 0.00 | 0.00 | 0.00 | 93 | 1037.4 |
| 20260903112353 | 73 | 345 | 0.0 | 0.0 | 0.00 | 0.00 | 0.00 | 93 | 1037.3 |
| 20260903111852 | 72 | 352 | 0.0 | 2.0 | 0.00 | 0.00 | 0.00 | 93 | 1037.3 |
| 20260903111351 | 73 | 337 | 0.0 | 1.0 | 0.00 | 0.00 | 0.00 | 93 | 1037.3 |
| 20260903110848 | 73 | 175 | 2.0 | 2.0 | 0.00 | 0.00 | 0.00 | 92 | 1037.5 |
| 20260903110343 | 73 | 8 | 0.0 | 0.0 | 0.00 | 0.00 | 0.00 | 91 | 1037.1 |
| 20260903105838 | 74 | 0 | 0.0 | 2.0 | 0.00 | 0.00 | 0.00 | 91 | 1037.2 |
| 20260903105333 | 73 | 337 | 2.0 | 2.0 | 0.00 | 0.00 | 0.00 | 92 | 1037.1 |
| 20260903104833 | 73 | 353 | 0.0 | 1.0 | 0.00 | 0.00 | 0.00 | 91 | 1037.0 |
| 20260903104327 | 73 | 352 | 0.0 | 0.0 | 0.00 | 0.00 | 0.00 | 91 | 1036.9 |
| 20260903103825 | 73 | 352 | 0.0 | 2.0 | 0.00 | 0.00 | 0.00 | 92 | 1036.9 |
| 20260903103320 | 73 | 346 | 1.0 | 2.0 | 0.00 | 0.00 | 0.00 | 92 | 1036.8 |
| 20260903102815 | 73 | 0 | 0.0 | 0.0 | 0.00 | 0.00 | 0.00 | 91 | 1036.9 |
| 20260903102310 | 73 | 0 | 0.0 | 0.0 | 0.00 | 0.00 | 0.00 | 91 | 1036.7 |
| 20260903101809 | 73 | 340 | 0.0 | 1.0 | 0.00 | 0.00 | 0.00 | 91 | 1036.6 |
| 20260903101304 | 73 | 346 | 0.0 | 0.0 | 0.00 | 0.00 | 0.00 | 91 | 1036.8 |
| 20260903100800 | 73 | 353 | 1.0 | 2.0 | 0.00 | 0.00 | 0.00 | 91 | 1036.5 |
| 20260903100254 | 73 | 352 | 0.0 | 2.0 | 0.00 | 0.00 | 0.00 | 91 | 1036.7 |
| 20260903095751 | 73 | 353 | 0.0 | 0.0 | 0.00 | 0.00 | 0.00 | 91 | 1036.5 |
| 20260903095246 | 73 | 0 | 0.0 | 0.0 | 0.00 | 0.00 | 0.00 | 91 | 1036.6 |
| 20260903094741 | 73 | 352 | 0.0 | 0.0 | 0.00 | 0.00 | 0.00 | 91 | 1036.6 |
| 20260903094236 | 73 | 0 | 0.0 | 1.0 | 0.00 | 0.00 | 0.00 | 92 | 1036.7 |
| 20260903093731 | 73 | 353 | 0.0 | 1.0 | 0.00 | 0.00 | 0.00 | 92 | 1036.8 |
| 20260903093227 | 73 | 355 | 0.0 | 2.0 | 0.00 | 0.00 | 0.00 | 92 | 1036.8 |
| 20260903092726 | 74 | 328 | 2.0 | 2.0 | 0.00 | 0.00 | 0.00 | 91 | 1036.5 |
| 20260903092221 | 74 | 337 | 0.0 | 2.0 | 0.00 | 0.00 | 0.00 | 91 | 1036.7 |
| 20260903091720 | 74 | 0 | 0.0 | 1.0 | 0.00 | 0.00 | 0.00 | 91 | 1036.7 |
| 20260903091215 | 73 | 353 | 1.0 | 2.0 | 0.00 | 0.00 | 0.00 | 92 | 1036.6 |
| 20260903090710 | 73 | 355 | 2.0 | 2.0 | 0.00 | 0.00 | 0.00 | 93 | 1036.9 |
| 20260903090208 | 72 | 340 | 1.0 | 2.0 | 0.00 | 0.00 | 0.00 | 93 | 1036.5 |
| 20260903085708 | 73 | 0 | 1.0 | 2.0 | 0.00 | 0.00 | 0.00 | 92 | 1036.9 |
| 20260903085203 | 73 | 353 | 0.0 | 1.0 | 0.00 | 0.00 | 0.00 | 92 | 1036.7 |
| 20260903084701 | 74 | 165 | 0.0 | 0.0 | 0.00 | 0.00 | 0.00 | 91 | 1036.8 |
| 20260903084155 | 74 | 0 | 0.0 | 0.0 | 0.00 | 0.00 | 0.00 | 91 | 1036.9 |
| 20260903083651 | 74 | 151 | 0.0 | 1.0 | 0.00 | 0.00 | 0.00 | 90 | 1036.7 |
| 20260903083145 | 75 | 8 | 0.0 | 0.0 | 0.00 | 0.00 | 0.00 | 89 | 1036.8 |
| 20260903082639 | 74 | 8 | 0.0 | 0.0 | 0.00 | 0.00 | 0.00 | 90 | 1036.7 |
| 20260903082136 | 74 | 8 | 0.0 | 0.0 | 0.00 | 0.00 | 0.00 | 90 | 1036.7 |
| 20260903081630 | 74 | 23 | 0.0 | 0.0 | 0.00 | 0.00 | 0.00 | 90 | 1036.7 |
| 20260903081126 | 74 | 23 | 0.0 | 0.0 | 0.00 | 0.00 | 0.00 | 90 | 1036.7 |
| 20260903080622 | 74 | 23 | 0.0 | 0.0 | 0.00 | 0.00 | 0.00 | 90 | 1036.6 |
| 20260903080120 | 74 | 23 | 0.0 | 0.0 | 0.00 | 0.00 | 0.00 | 89 | 1037.0 |
| 20260903075619 | 74 | 23 | 0.0 | 2.0 | 0.00 | 0.00 | 0.00 | 89 | 1036.7 |
| 20260903075114 | 75 | 346 | 1.0 | 2.0 | 0.00 | 0.00 | 0.00 | 87 | 1036.7 |
| 20260903074614 | 75 | 0 | 0.0 | 0.0 | 0.00 | 0.00 | 0.00 | 86 | 1036.6 |
| 20260903074108 | 74 | 7 | 1.0 | 2.0 | 0.00 | 0.00 | 0.00 | 89 | 1036.6 |
| 20260903073603 | 74 | 0 | 2.0 | 2.0 | 0.00 | 0.00 | 0.00 | 91 | 1036.5 |
| 20260903073059 | 73 | 353 | 1.0 | 2.0 | 0.00 | 0.00 | 0.00 | 91 | 1036.4 |
| 20260903072555 | 74 | 340 | 1.0 | 2.0 | 0.00 | 0.00 | 0.00 | 90 | 1036.6 |
| 20260903072051 | 75 | 0 | 2.0 | 2.0 | 0.00 | 0.00 | 0.00 | 88 | 1036.6 |
| 20260903071547 | 75 | 0 | 0.0 | 0.0 | 0.00 | 0.00 | 0.00 | 88 | 1036.4 |
| 20260903071047 | 75 | 0 | 0.0 | 2.0 | 0.00 | 0.00 | 0.00 | 86 | 1036.5 |
| 20260903070542 | 75 | 0 | 0.0 | 0.0 | 0.00 | 0.00 | 0.00 | 88 | 1036.4 |
| 20260903070038 | 75 | 174 | 0.0 | 1.0 | 0.00 | 0.00 | 0.00 | 88 | 1036.4 |
| 20260903065537 | 75 | 157 | 0.0 | 1.0 | 0.00 | 0.00 | 0.00 | 87 | 1036.6 |
| 20260903065036 | 76 | 180 | 0.0 | 0.0 | 0.00 | 0.00 | 0.00 | 85 | 1036.3 |
| 20260903064531 | 76 | 337 | 0.0 | 0.0 | 0.00 | 0.00 | 0.00 | 83 | 1036.5 |
| 20260903064027 | 75 | 352 | 0.0 | 2.0 | 0.00 | 0.00 | 0.00 | 86 | 1036.4 |
| 20260903063522 | 75 | 352 | 0.0 | 2.0 | 0.00 | 0.00 | 0.00 | 87 | 1036.5 |
| 20260903063017 | 75 | 334 | 1.0 | 2.0 | 0.00 | 0.00 | 0.00 | 87 | 1036.4 |
| 20260903062512 | 77 | 0 | 3.0 | 3.0 | 0.00 | 0.00 | 0.00 | 84 | 1036.6 |
| 20260903062008 | 77 | 346 | 1.0 | 2.0 | 0.00 | 0.00 | 0.00 | 81 | 1036.7 |
| 20260903061503 | 76 | 355 | 0.0 | 1.0 | 0.00 | 0.00 | 0.00 | 84 | 1036.5 |
| 20260903060958 | 77 | 346 | 1.0 | 1.0 | 0.00 | 0.00 | 0.00 | 83 | 1036.6 |
| 20260903060458 | 77 | 340 | 0.0 | 2.0 | 0.00 | 0.00 | 0.00 | 82 | 1036.7 |
| 20260903055957 | 77 | 341 | 2.0 | 2.0 | 0.00 | 0.00 | 0.00 | 82 | 1036.8 |
| 20260903055455 | 78 | 348 | 1.0 | 2.0 | 0.00 | 0.00 | 0.00 | 80 | 1036.6 |
| 20260903054954 | 78 | 345 | 2.0 | 2.0 | 0.00 | 0.00 | 0.00 | 79 | 1036.8 |
| 20260903054449 | 78 | 0 | 0.0 | 0.0 | 0.00 | 0.00 | 0.00 | 78 | 1036.5 |
| 20260903053945 | 78 | 0 | 0.0 | 1.0 | 0.00 | 0.00 | 0.00 | 78 | 1036.6 |
| 20260903053445 | 78 | 341 | 2.0 | 2.0 | 0.00 | 0.00 | 0.00 | 80 | 1036.6 |
| 20260903052942 | 78 | 353 | 1.0 | 2.0 | 0.00 | 0.00 | 0.00 | 79 | 1036.7 |
| 20260903052437 | 76 | 346 | 2.0 | 2.0 | 0.00 | 0.00 | 0.00 | 84 | 1036.8 |
| 20260903051933 | 76 | 352 | 2.0 | 2.0 | 0.00 | 0.00 | 0.00 | 87 | 1036.8 |
| 20260903051428 | 76 | 340 | 1.0 | 2.0 | 0.00 | 0.00 | 0.00 | 86 | 1037.0 |
| 20260903050924 | 77 | 342 | 1.0 | 2.0 | 0.00 | 0.00 | 0.00 | 85 | 1036.7 |
| 20260903050422 | 78 | 355 | 2.0 | 2.0 | 0.00 | 0.00 | 0.00 | 80 | 1037.2 |
| 20260903045917 | 78 | 145 | 0.0 | 0.0 | 0.00 | 0.00 | 0.00 | 79 | 1037.0 |
| 20260903045412 | 79 | 160 | 0.0 | 0.0 | 0.00 | 0.00 | 0.00 | 78 | 1037.0 |
| 20260903044909 | 78 | 160 | 0.0 | 0.0 | 0.00 | 0.00 | 0.00 | 77 | 1037.1 |
| 20260903044409 | 79 | 160 | 0.0 | 1.0 | 0.00 | 0.00 | 0.00 | 78 | 1036.8 |
| 20260903043906 | 80 | 5 | 0.0 | 0.0 | 0.00 | 0.00 | 0.00 | 75 | 1036.6 |
| 20260903043401 | 81 | 8 | 0.0 | 0.0 | 0.00 | 0.00 | 0.00 | 71 | 1036.7 |
| 20260903042859 | 81 | 81 | 0.0 | 0.0 | 0.00 | 0.00 | 0.00 | 71 | 1036.6 |
| 20260903042354 | 81 | 81 | 0.0 | 0.0 | 0.00 | 0.00 | 0.00 | 71 | 1036.8 |
| 20260903041850 | 81 | 81 | 0.0 | 0.0 | 0.00 | 0.00 | 0.00 | 71 | 1036.8 |
| 20260903041347 | 82 | 294 | 0.0 | 0.0 | 0.00 | 0.00 | 0.00 | 69 | 1036.9 |
| 20260903040842 | 81 | 352 | 0.0 | 1.0 | 0.00 | 0.00 | 0.00 | 71 | 1036.8 |
| 20260903040341 | 81 | 345 | 0.0 | 0.0 | 0.00 | 0.00 | 0.00 | 71 | 1036.9 |
| 20260903035838 | 80 | 348 | 0.0 | 2.0 | 0.00 | 0.00 | 0.00 | 74 | 1036.7 |
| 20260903035332 | 80 | 337 | 0.0 | 1.0 | 0.00 | 0.00 | 0.00 | 75 | 1036.6 |
| 20260903034827 | 80 | 0 | 0.0 | 2.0 | 0.00 | 0.00 | 0.00 | 75 | 1036.8 |
| 20260903034323 | 81 | 353 | 0.0 | 1.0 | 0.00 | 0.00 | 0.00 | 75 | 1037.0 |
| 20260903033818 | 81 | 345 | 0.0 | 0.0 | 0.00 | 0.00 | 0.00 | 74 | 1036.8 |
| 20260903033313 | 81 | 345 | 0.0 | 0.0 | 0.00 | 0.00 | 0.00 | 73 | 1036.7 |
| 20260903032807 | 81 | 345 | 0.0 | 0.0 | 0.00 | 0.00 | 0.00 | 74 | 1036.9 |
| 20260903032305 | 82 | 345 | 0.0 | 0.0 | 0.00 | 0.00 | 0.00 | 73 | 1036.8 |
| 20260903031758 | 82 | 344 | 0.0 | 2.0 | 0.00 | 0.00 | 0.00 | 73 | 1037.0 |
| 20260903031257 | 82 | 334 | 0.0 | 2.0 | 0.00 | 0.00 | 0.00 | 74 | 1036.9 |
| 20260903030754 | 81 | 331 | 0.0 | 1.0 | 0.00 | 0.00 | 0.00 | 74 | 1037.0 |
| 20260903030249 | 81 | 340 | 0.0 | 1.0 | 0.00 | 0.00 | 0.00 | 75 | 1036.8 |
| 20260903025744 | 81 | 337 | 0.0 | 0.0 | 0.00 | 0.00 | 0.00 | 76 | 1037.1 |
| 20260903025240 | 82 | 337 | 0.0 | 0.0 | 0.00 | 0.00 | 0.00 | 74 | 1036.8 |
| 20260903024735 | 82 | 334 | 0.0 | 1.0 | 0.00 | 0.00 | 0.00 | 73 | 1036.8 |
| 20260903024234 | 82 | 353 | 0.0 | 0.0 | 0.00 | 0.00 | 0.00 | 73 | 1036.9 |
| 20260903023730 | 82 | 328 | 0.0 | 2.0 | 0.00 | 0.00 | 0.00 | 74 | 1037.0 |
| 20260903023225 | 83 | 337 | 0.0 | 2.0 | 0.00 | 0.00 | 0.00 | 72 | 1036.8 |
| 20260903022725 | 83 | 334 | 1.0 | 2.0 | 0.00 | 0.00 | 0.00 | 72 | 1037.0 |
| 20260903022224 | 83 | 349 | 2.0 | 2.0 | 0.00 | 0.00 | 0.00 | 72 | 1036.9 |
| 20260903021719 | 83 | 337 | 2.0 | 2.0 | 0.00 | 0.00 | 0.00 | 73 | 1037.1 |
| 20260903021214 | 83 | 352 | 0.0 | 2.0 | 0.00 | 0.00 | 0.00 | 73 | 1037.0 |
| 20260903020714 | 82 | 345 | 0.0 | 2.0 | 0.00 | 0.00 | 0.00 | 74 | 1036.9 |
| 20260903020209 | 83 | 336 | 2.0 | 2.0 | 0.00 | 0.00 | 0.00 | 74 | 1037.1 |
| 20260903015704 | 84 | 352 | 0.0 | 1.0 | 0.00 | 0.00 | 0.00 | 72 | 1036.9 |
| 20260903015159 | 83 | 353 | 1.0 | 2.0 | 0.00 | 0.00 | 0.00 | 74 | 1036.9 |
| 20260903014700 | 83 | 346 | 0.0 | 2.0 | 0.00 | 0.00 | 0.00 | 74 | 1036.9 |
| 20260903014154 | 83 | 341 | 2.0 | 3.0 | 0.00 | 0.00 | 0.00 | 73 | 1036.9 |
| 20260903013649 | 84 | 345 | 0.0 | 2.0 | 0.00 | 0.00 | 0.00 | 71 | 1036.7 |
| 20260903013148 | 84 | 352 | 0.0 | 2.0 | 0.00 | 0.00 | 0.00 | 70 | 1036.8 |
| 20260903012647 | 86 | 346 | 1.0 | 1.0 | 0.00 | 0.00 | 0.00 | 66 | 1036.8 |
| 20260903012147 | 85 | 350 | 2.0 | 2.0 | 0.00 | 0.00 | 0.00 | 66 | 1036.7 |
| 20260903011647 | 84 | 354 | 1.0 | 2.0 | 0.00 | 0.00 | 0.00 | 67 | 1036.4 |
| 20260903011140 | 84 | 352 | 0.0 | 2.0 | 0.00 | 0.00 | 0.00 | 70 | 1036.5 |
| 20260903010636 | 84 | 353 | 0.0 | 2.0 | 0.00 | 0.00 | 0.00 | 71 | 1036.5 |
| 20260903010135 | 85 | 346 | 1.0 | 2.0 | 0.00 | 0.00 | 0.00 | 69 | 1036.6 |
| 20260903005635 | 86 | 346 | 0.0 | 1.0 | 0.00 | 0.00 | 0.00 | 67 | 1036.5 |
| 20260903005130 | 86 | 0 | 0.0 | 0.0 | 0.00 | 0.00 | 0.00 | 65 | 1036.3 |
| 20260903004625 | 86 | 353 | 1.0 | 1.0 | 0.00 | 0.00 | 0.00 | 65 | 1036.3 |
| 20260903004120 | 85 | 346 | 1.0 | 2.0 | 0.00 | 0.00 | 0.00 | 67 | 1036.4 |
| 20260903003616 | 84 | 352 | 1.0 | 1.0 | 0.00 | 0.00 | 0.00 | 72 | 1036.4 |
| 20260903003111 | 85 | 0 | 2.0 | 2.0 | 0.00 | 0.00 | 0.00 | 72 | 1036.4 |
| 20260903002606 | 86 | 5 | 2.0 | 2.0 | 0.00 | 0.00 | 0.00 | 66 | 1036.1 |
| 20260903002106 | 87 | 352 | 0.0 | 0.0 | 0.00 | 0.00 | 0.00 | 62 | 1036.1 |
| 20260903001601 | 86 | 352 | 0.0 | 0.0 | 0.00 | 0.00 | 0.00 | 63 | 1035.9 |
| 20260903001055 | 85 | 352 | 1.0 | 1.0 | 0.00 | 0.00 | 0.00 | 67 | 1036.4 |
| 20260903000550 | 86 | 356 | 2.0 | 2.0 | 0.00 | 0.00 | 0.00 | 66 | 1035.8 |
| 20260903000043 | 87 | 0 | 1.0 | 1.0 | 0.00 | 0.00 | 0.00 | 66 | 1035.8 |
| 20260902235537 | 87 | 0 | 0.0 | 1.0 | 0.00 | 0.00 | 0.00 | 65 | 1036.0 |
| 20260902235032 | 87 | 0 | 0.0 | 0.0 | 0.00 | 0.00 | 0.00 | 66 | 1036.0 |
| 20260902234527 | 87 | 0 | 0.0 | 0.0 | 0.00 | 0.00 | 0.00 | 64 | 1036.3 |
| 20260902234025 | 87 | 0 | 0.0 | 0.0 | 0.00 | 0.00 | 0.00 | 64 | 1036.4 |
| 20260902233520 | 88 | 353 | 1.0 | 2.0 | 0.00 | 0.00 | 0.00 | 64 | 1036.1 |
| 20260902233015 | 88 | 346 | 1.0 | 1.0 | 0.00 | 0.00 | 0.00 | 65 | 1036.0 |
| 20260902232514 | 89 | 0 | 0.0 | 2.0 | 0.00 | 0.00 | 0.00 | 64 | 1036.0 |
| 20260902232008 | 90 | 0 | 0.0 | 1.0 | 0.00 | 0.00 | 0.00 | 62 | 1036.1 |
| 20260902231503 | 90 | 0 | 0.0 | 0.0 | 0.00 | 0.00 | 0.00 | 60 | 1036.3 |
| 20260902230958 | 91 | 353 | 0.0 | 2.0 | 0.00 | 0.00 | 0.00 | 58 | 1036.3 |
| 20260902230451 | 93 | 342 | 2.0 | 2.0 | 0.00 | 0.00 | 0.00 | 56 | 1036.3 |
| 20260902225945 | 95 | 172 | 0.0 | 0.0 | 0.00 | 0.00 | 0.00 | 50 | 1036.1 |
| 20260902225441 | 99 | 172 | 0.0 | 0.0 | 0.00 | 0.00 | 0.00 | 45 | 1036.4 |
| 20260902224940 | 101 | 172 | 0.0 | 1.0 | 0.00 | 0.00 | 0.00 | 43 | 1036.4 |
| 20260902224439 | 100 | 188 | 0.0 | 1.0 | 0.00 | 0.00 | 0.00 | 43 | 1036.4 |
| 20260902223936 | 98 | 187 | 0.0 | 1.0 | 0.00 | 0.00 | 0.00 | 46 | 1036.5 |
| 20260902223431 | 98 | 7 | 0.0 | 0.0 | 0.00 | 0.00 | 0.00 | 45 | 1036.6 |
| 20260902222930 | 98 | 7 | 0.0 | 0.0 | 0.00 | 0.00 | 0.00 | 45 | 1036.5 |
| 20260902222429 | 98 | 7 | 0.0 | 1.0 | 0.00 | 0.00 | 0.00 | 44 | 1036.6 |
| 20260902221929 | 98 | 23 | 0.0 | 1.0 | 0.00 | 0.00 | 0.00 | 46 | 1036.5 |
| 20260902221427 | 98 | 352 | 0.0 | 0.0 | 0.00 | 0.00 | 0.00 | 44 | 1036.6 |
| 20260902220924 | 98 | 29 | 0.0 | 2.0 | 0.00 | 0.00 | 0.00 | 46 | 1036.5 |
| 20260902220423 | 98 | 348 | 0.0 | 0.0 | 0.00 | 0.00 | 0.00 | 45 | 1036.6 |
| 20260902215918 | 98 | 337 | 1.0 | 1.0 | 0.00 | 0.00 | 0.00 | 45 | 1036.6 |
| 20260902215414 | 98 | 345 | 0.0 | 1.0 | 0.00 | 0.00 | 0.00 | 44 | 1036.6 |
| 20260902214910 | 100 | 172 | 0.0 | 1.0 | 0.00 | 0.00 | 0.00 | 43 | 1036.7 |
| 20260902214408 | 99 | 0 | 2.0 | 2.0 | 0.00 | 0.00 | 0.00 | 42 | 1036.8 |
| 20260902213903 | 99 | 7 | 1.0 | 2.0 | 0.00 | 0.00 | 0.00 | 42 | 1036.9 |
| 20260902213400 | 100 | 6 | 0.0 | 0.0 | 0.00 | 0.00 | 0.00 | 41 | 1036.6 |
| 20260902212858 | 101 | 240 | 0.0 | 2.0 | 0.00 | 0.00 | 0.00 | 42 | 1036.6 |
| 20260902212354 | 100 | 6 | 0.0 | 2.0 | 0.00 | 0.00 | 0.00 | 42 | 1036.7 |